Time,TemperatureF,DewpointF,PressureIn,WindDirection,WindDirectionDegrees,WindSpeedMPH,WindSpeedGustMPH,Humidity,HourlyPrecipIn,Conditions,Clouds,dailyrainin,SolarRadiationWatts/m^2,SoftwareType,DateUTC
2013-05-26 00:02:00,73.0,66.0,-100.00,ENE,73,2.0,5.0,78,0.00,,,0.00,0.000000,,2013-05-26 10:02:00,
2013-05-26 00:12:00,73.0,66.0,-100.00,ENE,73,2.0,5.0,78,0.00,,,0.00,0.000000,,2013-05-26 10:12:00,
2013-05-26 00:22:00,73.0,65.0,-100.00,East,82,2.0,5.0,76,0.00,,,0.00,0.000000,,2013-05-26 10:22:00,
2013-05-26 00:42:00,73.0,65.0,-100.00,East,82,2.0,5.0,76,0.00,,,0.00,0.000000,,2013-05-26 10:42:00,
2013-05-26 00:52:00,73.0,65.0,-100.00,East,82,2.0,5.0,76,0.00,,,0.00,0.000000,,2013-05-26 10:52:00,
2013-05-26 01:02:00,73.0,65.0,-100.00,East,82,2.0,5.0,76,0.00,,,0.00,0.000000,,2013-05-26 11:02:00,
2013-05-26 01:11:00,73.0,65.0,-100.00,East,82,2.0,5.0,76,0.00,,,0.00,0.000000,,2013-05-26 11:11:00,
2013-05-26 01:42:00,74.0,66.0,-100.00,East,91,2.0,5.0,75,0.00,,,0.00,0.000000,,2013-05-26 11:42:00,
2013-05-26 01:52:00,74.0,66.0,-100.00,East,91,2.0,5.0,75,0.00,,,0.00,0.000000,,2013-05-26 11:52:00,
2013-05-26 02:01:00,74.0,66.0,-100.00,East,91,2.0,5.0,75,0.00,,,0.00,0.000000,,2013-05-26 12:01:00,
2013-05-26 02:11:00,74.0,66.0,-100.00,East,91,2.0,5.0,75,0.00,,,0.00,0.000000,,2013-05-26 12:11:00,
2013-05-26 02:21:00,74.0,66.0,-100.00,East,91,2.0,5.0,75,0.00,,,0.00,0.000000,,2013-05-26 12:21:00,
2013-05-26 02:42:00,74.0,65.0,-100.00,East,82,2.0,6.0,74,0.00,,,0.00,0.000000,,2013-05-26 12:42:00,
2013-05-26 02:52:00,74.0,65.0,-100.00,East,82,2.0,6.0,74,0.00,,,0.00,0.000000,,2013-05-26 12:52:00,
2013-05-26 03:02:00,74.0,65.0,-100.00,East,82,2.0,6.0,74,0.00,,,0.00,0.000000,,2013-05-26 13:02:00,
2013-05-26 03:11:00,74.0,65.0,-100.00,East,82,2.0,6.0,74,0.00,,,0.00,0.000000,,2013-05-26 13:11:00,
2013-05-26 03:21:00,74.0,65.0,-100.00,East,82,2.0,6.0,74,0.00,,,0.00,0.000000,,2013-05-26 13:21:00,
2013-05-26 03:42:00,73.0,63.0,-100.00,East,91,2.0,5.0,72,0.00,,,0.00,0.000000,,2013-05-26 13:42:00,
2013-05-26 03:52:00,73.0,63.0,-100.00,East,91,2.0,5.0,72,0.00,,,0.00,0.000000,,2013-05-26 13:52:00,
2013-05-26 04:02:00,73.0,63.0,-100.00,East,91,2.0,5.0,72,0.00,,,0.00,0.000000,,2013-05-26 14:02:00,
2013-05-26 04:11:00,73.0,63.0,-100.00,East,91,2.0,5.0,72,0.00,,,0.00,0.000000,,2013-05-26 14:11:00,
2013-05-26 04:21:00,73.0,63.0,-100.00,East,91,2.0,5.0,72,0.00,,,0.00,0.000000,,2013-05-26 14:21:00,
2013-05-26 04:22:00,72.0,62.0,-100.00,East,85,2.0,6.0,70,0.00,,,0.00,0.000000,,2013-05-26 14:22:00,
2013-05-26 04:42:00,72.0,62.0,-100.00,East,85,2.0,6.0,70,0.00,,,0.00,0.000000,,2013-05-26 14:42:00,
2013-05-26 04:52:00,72.0,62.0,-100.00,East,85,2.0,6.0,70,0.00,,,0.00,0.000000,,2013-05-26 14:52:00,
2013-05-26 05:01:00,72.0,62.0,-100.00,East,85,2.0,6.0,70,0.00,,,0.00,0.000000,,2013-05-26 15:01:00,
2013-05-26 05:11:00,72.0,62.0,-100.00,East,85,2.0,6.0,70,0.00,,,0.00,0.000000,,2013-05-26 15:11:00,
2013-05-26 05:22:00,73.0,62.0,-100.00,East,84,3.0,6.0,68,0.00,,,0.00,0.000000,,2013-05-26 15:22:00,
2013-05-26 05:43:00,73.0,62.0,-100.00,East,84,3.0,6.0,68,0.00,,,0.00,0.000000,,2013-05-26 15:43:00,
2013-05-26 05:53:00,73.0,62.0,-100.00,East,84,3.0,6.0,68,0.00,,,0.00,0.000000,,2013-05-26 15:53:00,
2013-05-26 06:03:00,73.0,62.0,-100.00,East,84,3.0,6.0,68,0.00,,,0.00,0.000000,,2013-05-26 16:03:00,
2013-05-26 06:12:00,73.0,62.0,-100.00,East,84,3.0,6.0,68,0.00,,,0.00,0.000000,,2013-05-26 16:12:00,
2013-05-26 06:22:00,73.0,63.0,-100.00,ENE,76,2.0,6.0,72,0.00,,,0.00,1.000000,,2013-05-26 16:22:00,
2013-05-26 06:42:00,73.0,63.0,-100.00,ENE,76,2.0,6.0,72,0.00,,,0.00,1.000000,,2013-05-26 16:42:00,
2013-05-26 06:53:00,73.0,63.0,-100.00,ENE,76,2.0,6.0,72,0.00,,,0.00,1.000000,,2013-05-26 16:53:00,
2013-05-26 07:02:00,73.0,63.0,-100.00,ENE,76,2.0,6.0,72,0.00,,,0.00,1.000000,,2013-05-26 17:02:00,
2013-05-26 07:11:00,73.0,63.0,-100.00,ENE,76,2.0,6.0,72,0.00,,,0.00,1.000000,,2013-05-26 17:11:00,
2013-05-26 07:42:00,74.0,67.0,-100.00,NNE,33,2.0,7.0,78,0.00,,,0.00,62.000000,,2013-05-26 17:42:00,
2013-05-26 07:52:00,74.0,67.0,-100.00,NNE,33,2.0,7.0,78,0.00,,,0.00,62.000000,,2013-05-26 17:52:00,
2013-05-26 08:01:00,74.0,67.0,-100.00,NNE,33,2.0,7.0,78,0.00,,,0.00,62.000000,,2013-05-26 18:01:00,
2013-05-26 08:12:00,74.0,67.0,-100.00,NNE,33,2.0,7.0,78,0.00,,,0.00,62.000000,,2013-05-26 18:12:00,
2013-05-26 08:21:00,74.0,67.0,-100.00,NNE,33,2.0,7.0,78,0.00,,,0.00,62.000000,,2013-05-26 18:21:00,
2013-05-26 08:42:00,77.0,68.0,-100.00,NW,322,2.0,7.0,73,0.00,,,0.00,274.000000,,2013-05-26 18:42:00,
2013-05-26 08:52:00,77.0,68.0,-100.00,NW,322,2.0,7.0,73,0.00,,,0.00,274.000000,,2013-05-26 18:52:00,
2013-05-26 09:01:00,77.0,68.0,-100.00,NW,322,2.0,7.0,73,0.00,,,0.00,274.000000,,2013-05-26 19:01:00,
2013-05-26 09:11:00,77.0,68.0,-100.00,NW,322,2.0,7.0,73,0.00,,,0.00,274.000000,,2013-05-26 19:11:00,
2013-05-26 09:21:00,77.0,68.0,-100.00,NW,322,2.0,7.0,73,0.00,,,0.00,274.000000,,2013-05-26 19:21:00,
2013-05-26 09:42:00,78.0,66.0,-100.00,NNW,328,2.0,8.0,67,0.00,,,0.00,302.000000,,2013-05-26 19:42:00,
2013-05-26 09:52:00,78.0,66.0,-100.00,NNW,328,2.0,8.0,67,0.00,,,0.00,302.000000,,2013-05-26 19:52:00,
2013-05-26 10:02:00,78.0,66.0,-100.00,NNW,328,2.0,8.0,67,0.00,,,0.00,302.000000,,2013-05-26 20:02:00,
2013-05-26 10:11:00,78.0,66.0,-100.00,NNW,328,2.0,8.0,67,0.00,,,0.00,302.000000,,2013-05-26 20:11:00,
2013-05-26 10:21:00,78.0,66.0,-100.00,NNW,328,2.0,8.0,67,0.00,,,0.00,302.000000,,2013-05-26 20:21:00,
2013-05-26 10:22:00,80.0,68.0,-100.00,West,274,3.0,9.0,66,0.00,,,0.00,427.000000,,2013-05-26 20:22:00,
2013-05-26 10:42:00,80.0,68.0,-100.00,West,274,3.0,9.0,66,0.00,,,0.00,427.000000,,2013-05-26 20:42:00,
2013-05-26 10:52:00,80.0,68.0,-100.00,West,274,3.0,9.0,66,0.00,,,0.00,427.000000,,2013-05-26 20:52:00,
2013-05-26 11:01:00,80.0,68.0,-100.00,West,274,3.0,9.0,66,0.00,,,0.00,427.000000,,2013-05-26 21:01:00,
2013-05-26 11:11:00,80.0,68.0,-100.00,West,274,3.0,9.0,66,0.00,,,0.00,427.000000,,2013-05-26 21:11:00,
2013-05-26 11:22:00,81.0,67.0,-100.00,West,271,4.0,8.0,63,0.00,,,0.00,768.000000,,2013-05-26 21:22:00,
2013-05-26 11:43:00,81.0,67.0,-100.00,West,271,4.0,8.0,63,0.00,,,0.00,768.000000,,2013-05-26 21:43:00,
2013-05-26 11:53:00,81.0,67.0,-100.00,West,271,4.0,8.0,63,0.00,,,0.00,768.000000,,2013-05-26 21:53:00,
2013-05-26 12:02:00,81.0,67.0,-100.00,West,271,4.0,8.0,63,0.00,,,0.00,768.000000,,2013-05-26 22:02:00,
2013-05-26 12:12:00,81.0,67.0,-100.00,West,271,4.0,8.0,63,0.00,,,0.00,768.000000,,2013-05-26 22:12:00,
2013-05-26 12:22:00,82.0,69.0,-100.00,West,270,4.0,9.0,65,0.00,,,0.00,719.000000,,2013-05-26 22:22:00,
2013-05-26 12:42:00,82.0,69.0,-100.00,West,270,4.0,9.0,65,0.00,,,0.00,719.000000,,2013-05-26 22:42:00,
2013-05-26 12:53:00,82.0,69.0,-100.00,West,270,4.0,9.0,65,0.00,,,0.00,719.000000,,2013-05-26 22:53:00,
2013-05-26 13:02:00,82.0,69.0,-100.00,West,270,4.0,9.0,65,0.00,,,0.00,719.000000,,2013-05-26 23:02:00,
2013-05-26 13:11:00,82.0,69.0,-100.00,West,270,4.0,9.0,65,0.00,,,0.00,719.000000,,2013-05-26 23:11:00,
2013-05-26 13:43:00,80.0,68.0,-100.00,West,264,3.0,8.0,66,0.00,,,0.00,327.000000,,2013-05-26 23:43:00,
2013-05-26 13:52:00,80.0,68.0,-100.00,West,264,3.0,8.0,66,0.00,,,0.00,327.000000,,2013-05-26 23:52:00,
2013-05-26 14:02:00,80.0,68.0,-100.00,West,264,3.0,8.0,66,0.00,,,0.00,327.000000,,2013-05-27 00:02:00,
2013-05-26 14:11:00,80.0,68.0,-100.00,West,264,3.0,8.0,66,0.00,,,0.00,327.000000,,2013-05-27 00:11:00,
2013-05-26 14:21:00,80.0,68.0,-100.00,West,264,3.0,8.0,66,0.00,,,0.00,327.000000,,2013-05-27 00:21:00,
2013-05-26 14:42:00,82.0,67.0,-100.00,WSW,239,4.0,11.0,60,0.00,,,0.00,799.000000,,2013-05-27 00:42:00,
2013-05-26 14:52:00,82.0,67.0,-100.00,WSW,239,4.0,11.0,60,0.00,,,0.00,799.000000,,2013-05-27 00:52:00,
2013-05-26 15:01:00,82.0,67.0,-100.00,WSW,239,4.0,11.0,60,0.00,,,0.00,799.000000,,2013-05-27 01:01:00,
2013-05-26 15:11:00,82.0,67.0,-100.00,WSW,239,4.0,11.0,60,0.00,,,0.00,799.000000,,2013-05-27 01:11:00,
2013-05-26 15:21:00,82.0,67.0,-100.00,WSW,239,4.0,11.0,60,0.00,,,0.00,799.000000,,2013-05-27 01:21:00,
2013-05-26 15:42:00,82.0,65.0,-100.00,WSW,252,3.0,7.0,56,0.00,,,0.00,546.000000,,2013-05-27 01:42:00,
2013-05-26 15:52:00,82.0,65.0,-100.00,WSW,252,3.0,7.0,56,0.00,,,0.00,546.000000,,2013-05-27 01:52:00,
2013-05-26 16:01:00,82.0,65.0,-100.00,WSW,252,3.0,7.0,56,0.00,,,0.00,546.000000,,2013-05-27 02:01:00,
2013-05-26 16:11:00,82.0,65.0,-100.00,WSW,252,3.0,7.0,56,0.00,,,0.00,546.000000,,2013-05-27 02:11:00,
2013-05-26 16:21:00,82.0,65.0,-100.00,WSW,252,3.0,7.0,56,0.00,,,0.00,546.000000,,2013-05-27 02:21:00,
2013-05-26 16:43:00,81.0,69.0,-100.00,WSW,240,4.0,8.0,66,0.00,,,0.00,281.000000,,2013-05-27 02:43:00,
2013-05-26 16:52:00,81.0,69.0,-100.00,WSW,240,4.0,8.0,66,0.00,,,0.00,281.000000,,2013-05-27 02:52:00,
2013-05-26 17:02:00,81.0,69.0,-100.00,WSW,240,4.0,8.0,66,0.00,,,0.00,281.000000,,2013-05-27 03:02:00,
2013-05-26 17:11:00,81.0,69.0,-100.00,WSW,240,4.0,8.0,66,0.00,,,0.00,281.000000,,2013-05-27 03:11:00,
2013-05-26 17:21:00,81.0,69.0,-100.00,WSW,240,4.0,8.0,66,0.00,,,0.00,281.000000,,2013-05-27 03:21:00,
2013-05-26 17:22:00,79.0,71.0,-100.00,WSW,241,2.0,7.0,76,0.00,,,0.00,123.000000,,2013-05-27 03:22:00,
2013-05-26 17:43:00,79.0,71.0,-100.00,WSW,241,2.0,7.0,76,0.00,,,0.00,123.000000,,2013-05-27 03:43:00,
2013-05-26 17:53:00,79.0,71.0,-100.00,WSW,241,2.0,7.0,76,0.00,,,0.00,123.000000,,2013-05-27 03:53:00,
2013-05-26 18:02:00,79.0,71.0,-100.00,WSW,241,2.0,7.0,76,0.00,,,0.00,123.000000,,2013-05-27 04:02:00,
2013-05-26 18:12:00,79.0,71.0,-100.00,WSW,241,2.0,7.0,76,0.00,,,0.00,123.000000,,2013-05-27 04:12:00,
2013-05-26 18:43:00,72.0,70.0,-100.00,NNE,25,5.0,11.0,94,0.77,,,0.77,18.000000,,2013-05-27 04:43:00,
2013-05-26 18:52:00,72.0,70.0,-100.00,NNE,25,5.0,11.0,94,0.77,,,0.77,18.000000,,2013-05-27 04:52:00,
2013-05-26 19:02:00,72.0,70.0,-100.00,NNE,25,5.0,11.0,94,0.77,,,0.77,18.000000,,2013-05-27 05:02:00,
2013-05-26 19:12:00,72.0,70.0,-100.00,NNE,25,5.0,11.0,94,0.77,,,0.77,18.000000,,2013-05-27 05:12:00,
2013-05-26 19:21:00,72.0,70.0,-100.00,NNE,25,5.0,11.0,94,0.77,,,0.77,18.000000,,2013-05-27 05:21:00,
2013-05-26 19:42:00,71.0,67.0,-100.00,NE,51,4.0,10.0,88,0.16,,,0.93,8.000000,,2013-05-27 05:42:00,
2013-05-26 19:52:00,71.0,67.0,-100.00,NE,51,4.0,10.0,88,0.16,,,0.93,8.000000,,2013-05-27 05:52:00,
2013-05-26 20:01:00,71.0,67.0,-100.00,NE,51,4.0,10.0,88,0.16,,,0.93,8.000000,,2013-05-27 06:01:00,
2013-05-26 20:11:00,71.0,67.0,-100.00,NE,51,4.0,10.0,88,0.16,,,0.93,8.000000,,2013-05-27 06:11:00,
2013-05-26 20:21:00,71.0,67.0,-100.00,NE,51,4.0,10.0,88,0.16,,,0.93,8.000000,,2013-05-27 06:21:00,
2013-05-26 20:42:00,72.0,67.0,-100.00,NE,55,3.0,7.0,84,0.00,,,0.93,0.000000,,2013-05-27 06:42:00,
2013-05-26 20:52:00,72.0,67.0,-100.00,NE,55,3.0,7.0,84,0.00,,,0.93,0.000000,,2013-05-27 06:52:00,
2013-05-26 21:02:00,72.0,67.0,-100.00,NE,55,3.0,7.0,84,0.00,,,0.93,0.000000,,2013-05-27 07:02:00,
2013-05-26 21:11:00,72.0,67.0,-100.00,NE,55,3.0,7.0,84,0.00,,,0.93,0.000000,,2013-05-27 07:11:00,
2013-05-26 21:21:00,72.0,67.0,-100.00,NE,55,3.0,7.0,84,0.00,,,0.93,0.000000,,2013-05-27 07:21:00,
2013-05-26 21:42:00,72.0,67.0,-100.00,ENE,78,3.0,5.0,85,0.00,,,0.93,0.000000,,2013-05-27 07:42:00,
2013-05-26 21:52:00,72.0,67.0,-100.00,ENE,78,3.0,5.0,85,0.00,,,0.93,0.000000,,2013-05-27 07:52:00,
2013-05-26 22:02:00,72.0,67.0,-100.00,ENE,78,3.0,5.0,85,0.00,,,0.93,0.000000,,2013-05-27 08:02:00,
2013-05-26 22:11:00,72.0,67.0,-100.00,ENE,78,3.0,5.0,85,0.00,,,0.93,0.000000,,2013-05-27 08:11:00,
2013-05-26 22:21:00,72.0,67.0,-100.00,ENE,78,3.0,5.0,85,0.00,,,0.93,0.000000,,2013-05-27 08:21:00,
2013-05-26 22:42:00,71.0,66.0,-100.00,East,93,3.0,5.0,84,0.00,,,0.93,0.000000,,2013-05-27 08:42:00,
2013-05-26 22:52:00,71.0,66.0,-100.00,East,93,3.0,5.0,84,0.00,,,0.93,0.000000,,2013-05-27 08:52:00,
2013-05-26 23:02:00,71.0,66.0,-100.00,East,93,3.0,5.0,84,0.00,,,0.93,0.000000,,2013-05-27 09:02:00,
2013-05-26 23:11:00,71.0,66.0,-100.00,East,93,3.0,5.0,84,0.00,,,0.93,0.000000,,2013-05-27 09:11:00,
2013-05-26 23:21:00,71.0,66.0,-100.00,East,93,3.0,5.0,84,0.00,,,0.93,0.000000,,2013-05-27 09:21:00,
2013-05-26 23:22:00,71.0,65.0,-100.00,East,96,3.0,6.0,80,0.00,,,0.93,0.000000,,2013-05-27 09:22:00,
2013-05-26 23:42:00,71.0,65.0,-100.00,East,96,3.0,6.0,80,0.00,,,0.93,0.000000,,2013-05-27 09:42:00,
2013-05-26 23:53:00,71.0,65.0,-100.00,East,96,3.0,6.0,80,0.00,,,0.93,0.000000,,2013-05-27 09:53:00,